Location: Seattle
(47.6064°N, 122.3308°W)
Time: 02:20:49
(UTC-08:00)

A-11 Canister half - Pass Details

Date: 29 November 2020
Orbit: 1524 x 1684 km, 47.3° (Epoch: 21 January)

Event Time Altitude Azimuth Distance (km) Brightness Sun altitude
Rises 04:37:43 0° 204° (SSW) 4,922 11.4 -29.1°
Reaches altitude 10° 04:41:16 10° 196° (SSW) 3,940 11.0 -28.5°
Maximum altitude 04:49:57 34° 136° (SE) 2,512 10.4 -27.1°
Drops below altitude 10° 04:58:33 10° 77° (ENE) 3,906 12.0 -25.6°
Sets 05:02:01 0° 69° (ENE) 4,877 12.6 -25.0°
